Location: Peterborough
(44.3091°N, 78.3197°W)
Time: 00:07:29
(UTC-04:00)

SR - Pass Details

Date: 23 March 2023
Orbit: 581 x 867 km, 66.7° (Epoch: 02 June)

Event Time Altitude Azimuth Distance (km) Brightness Sun altitude
Rises 05:43:39 0° 262° (W) 2,951 - -16.2°
Reaches altitude 10° 05:46:59 10° 286° (WNW) 1,992 - -15.7°
Exits shadow 05:48:21 13° 304° (WNW) 1,757 ? -15.4°
Maximum altitude 05:49:27 14° 320° (NW) 1,687 ? -15.3°
Drops below altitude 10° 05:51:51 10° 354° (N) 1,939 ? -14.8°
Sets 05:55:01 0° 20° (NNE) 2,820 ? -14.3°
